Погода в Кромах

Россия / Ивановская область     56˚52′53″N   42˚30′52″E
темп.,
°C
ветер,
м/с
пор.,
м/с
влажн.,
%
обл.,
%
осадки,
мм/ч
давл.,
гПа
погр.,
м
16 января, сб
сб1600:00−13˚ссв3696100 0.2 1010270
03:00−13˚ссв51093100 1.1 1008383
06:00−13˚ссв61291100 0.3 1005520
09:00−13˚ссв61293100 0.8 1004622
12:00−13˚ссв51194100 3.3 1002671
15:00−14˚ссв51095100 5.3 1002645
18:00−15˚с4995100 1.1 1002548
21:00−15˚с4895100 1.7 1004548
17 января, вс
вс1700:00−17˚ссз4795100 0.4 1005431
03:00−19˚ссз4795100 0.4 1007367
06:00−23˚ссз3797100 0.0 1008218
09:00−27˚ссз359888 0.1 1011107
12:00−22˚ссз359517 0.0 1013230
15:00−21˚сз229625 0.0 101529
18:00−24˚ссз22970 0.0 101620
21:00−24˚ссз12970 0.0 101820
18 января, пн
пн1800:00−25˚сз11970 0.0 101920
03:00−25˚сз12960 0.0 101920
06:00−26˚з119719 0.0 101920
09:00−25˚зюз229728 0.0 102019
12:00−20˚зюз129486 0.0 1020135
15:00−20˚юз229673 0.0 102043
18:00−23˚з11963 0.0 102020
21:00−23˚юз119535 0.0 102020
19 января, вт
вт1900:00−23˚зсз0096100 0.0 102020
03:00−23˚всв0099100 0.0 102020
06:00−22˚вюв119999 0.1 102020
09:00−23˚в119998 0.1 102120
12:00−19˚в129486 0.0 1022185
15:00−19˚св119692 0.0 102120
18:00−23˚всв12988 0.0 102220
21:00−24˚всв12984 0.0 102320
20 января, ср
ср2000:00−25˚св11990 0.0 102420
03:00−25˚с01970 0.0 102520
06:00−25˚ссв11971 0.0 102620
09:00−25˚ююз11949 0.0 102720
12:00−19˚ююз12891 0.0 1027144
15:00−19˚ююз12932 0.0 102625
18:00−22˚ююз23920 0.0 102720
21:00−23˚ююз339224 0.0 102752